Location: Alta
(39.2070°N, 120.8111°W)
Time: 15:36:09
(UTC+00:00)

JY1SAT - Visible Passes

Search period start: 20 March 2023 00:00
Search period end: 30 March 2023 00:00
Orbit: 557 x 579 km, 97.6° (Epoch: 19 March)

Date Brightness Start Highest point End Pass type
(mag) Time Alt. Az. Time Alt. Az. Time Alt. Az.
25 Mar ? 05:23:09 11° N 05:23:09 11° N 05:23:15 10° N visible
26 Mar ? 05:24:14 11° N 05:24:14 11° N 05:24:26 10° N visible
27 Mar ? 05:25:18 12° N 05:25:18 12° N 05:25:35 10° N visible
28 Mar ? 05:26:20 13° N 05:26:20 13° N 05:26:44 10° N visible
29 Mar ? 05:27:23 13° NNW 05:27:23 13° NNW 05:27:52 10° NNW visible
